This is the latest recevied weather packets stored in our database for station/object DB0WUN-13. If no packets are shown the sender has not sent any weather packets the latest 1 day(s).
| Time | Temp. | Humidity | Pressure | Rain* | Wind** | Luminosity | Snow |
|---|---|---|---|---|---|---|---|
| 1777998078 | 17.78° C | 67% | 1006.7 hPa | 0 mm | 1.79 m/s, 16° | 97 W/m² | - |
| 1777998021 | 17.78° C | 66% | 1006.6 hPa | 0 mm | 2.24 m/s, 16° | 98 W/m² | - |
| 1777997961 | 17.78° C | 66% | 1006.7 hPa | 0 mm | 2.24 m/s, 18° | 98 W/m² | - |
| 1777997923 | 17.78° C | 66% | 1006.8 hPa | 0 mm | 2.24 m/s, 45° | 100 W/m² | - |
| 1777997891 | 17.78° C | 66% | 1006.6 hPa | 0 mm | 2.24 m/s, 30° | 100 W/m² | - |
| 1777997855 | 17.78° C | 66% | 1006.8 hPa | 0 mm | 2.24 m/s, 80° | 100 W/m² | - |
| 1777997800 | 18.33° C | 66% | 1006.7 hPa | 0 mm | 2.24 m/s, 49° | 100 W/m² | - |
| 1777997753 | 18.33° C | 66% | 1006.7 hPa | 0 mm | 2.68 m/s, 44° | 100 W/m² | - |
| 1777997707 | 18.33° C | 66% | 1006.7 hPa | 0 mm | 2.24 m/s, 40° | 100 W/m² | - |
| 1777997670 | 18.33° C | 66% | 1006.8 hPa | 0 mm | 2.24 m/s, 30° | 102 W/m² | - |
| 1777997621 | 18.33° C | 66% | 1006.8 hPa | 0 mm | 2.24 m/s, 48° | 102 W/m² | - |
| 1777997583 | 18.33° C | 66% | 1006.8 hPa | 0 mm | 2.24 m/s, 25° | 105 W/m² | - |
| 1777997538 | 18.33° C | 66% | 1006.8 hPa | 0 mm | 2.24 m/s, 51° | 111 W/m² | - |
| 1777997365 | 18.33° C | 66% | 1006.8 hPa | 0 mm | 2.24 m/s, 18° | 116 W/m² | - |
| 1777997332 | 18.33° C | 66% | 1006.8 hPa | 0 mm | 2.24 m/s, 66° | 121 W/m² | - |
| 1777997292 | 18.33° C | 66% | 1006.8 hPa | 0 mm | 2.24 m/s, 32° | 128 W/m² | - |
| 1777997233 | 18.33° C | 66% | 1006.8 hPa | 0 mm | 2.24 m/s, 35° | 142 W/m² | - |
| 1777997066 | 18.33° C | 66% | 1006.8 hPa | 0 mm | 2.24 m/s, 54° | 149 W/m² | - |
| 1777997026 | 18.33° C | 66% | 1006.8 hPa | 0 mm | 2.24 m/s, 56° | 174 W/m² | - |
| 1777996988 | 18.33° C | 66% | 1006.8 hPa | 0 mm | 2.24 m/s, 24° | 185 W/m² | - |
| 1777996957 | 18.33° C | 66% | 1006.8 hPa | 0 mm | 2.24 m/s, 20° | 195 W/m² | - |
| 1777996907 | 18.33° C | 66% | 1006.8 hPa | 0 mm | 1.79 m/s, 27° | 197 W/m² | - |
| 1777996870 | 18.33° C | 67% | 1006.7 hPa | 0 mm | 2.24 m/s, 60° | 171 W/m² | - |
| 1777996680 | 18.33° C | 67% | 1006.8 hPa | 0 mm | 2.24 m/s, 77° | 167 W/m² | - |
| 1777996643 | 18.33° C | 66% | 1006.8 hPa | 0 mm | 1.79 m/s, 19° | 167 W/m² | - |
* Rain latest hour (hover to see other rain measurements)
** Current wind speed in m/s (hover to see current wind gust speed)